Regional Weather Roundup
Issued by NWS Binghamton, NY

Home | Current Version | Previous Version | Text Only | Print | Product List | Glossary On
Versions: 1 2 3 4 5 6 7 8 9 10 11 12 13 14 15 16 17 18 19 20 21 22 23 24 25 26 27 28 29 30 31 32 33 34 35 36 37 38 39 40 41 42 43 44 45 46 47 48 49 50
000
ASUS41 KBGM 241710
RWRBGM

REGIONAL WEATHER ROUNDUP
NATIONAL WEATHER SERVICE BINGHAMTON NY
100 PM EDT TUE APR 24 2018

Note: "fair" indicates few or no clouds below 12,000 feet with no
significant weather and/or obstructions to visibility.

* = Station(s) that does not report precipitation, such as rain,
snow, etc, also no thunder or fog.

NYZ009-015>018-022>025-036-037-044>046-055>057-062-241800
...Central New York...

CITY           SKY/WX    TMP DP  RH WIND       PRES   REMARKS
Binghamton     FAIR      62  27  26 S8G18     30.22F
Cortland       FAIR      64  30  27 S8G18     30.21F
Dansville      CLOUDY    63  37  38 S10       30.18F
Elmira         FAIR      67  40  37 SW18      30.20F
Ithaca         FAIR      67  31  26 SE13      30.20F
Monticello     FAIR      60  31  33 SE16G23   30.30F
Penn Yan       FAIR      66  35  31 SW14      30.19F
Rome           FAIR      67  21  17 S12       30.22F
Sidney         SUNNY     68  28  22 S8G18     30.24F
Syracuse       PTSUNNY   68  24  19 S9G21     30.19F
$$

PAZ038>040-043-044-047-048-072-241800
...Northeast Pennsylvania...

CITY           SKY/WX    TMP DP  RH WIND       PRES   REMARKS
Hazleton       FAIR      63  36  36 S13G23    30.29F
Scranton       FAIR      65  34  31 S9G20     30.25F
$$
&&
KEY
WCI = Wind Chill Index
VSB = Visibility
HX  = Heat Index
$$



USA.gov is the U.S. government's official web portal to all federal, state and local government web resources and services.